This is the latest recevied weather packets stored in our database for station/object KO4ZGL-13. If no packets are shown the sender has not sent any weather packets the latest 10 day(s).
| Time | Temp. | Humidity | Pressure | Rain* | Wind** | Luminosity | Snow |
|---|---|---|---|---|---|---|---|
| 1787419073 | 33.89° C | 64% | 1015.4 hPa | 0 mm | - | 667 W/m² | - |
| 1787418768 | 33.89° C | 66% | 1015.2 hPa | 0 mm | - | 675 W/m² | - |
| 1787418465 | 32.78° C | 70% | 1015.2 hPa | 0 mm | - | 664 W/m² | - |
| 1787418161 | 32.78° C | 67% | 1015.3 hPa | 0 mm | - | 664 W/m² | - |
| 1787417856 | 32.78° C | 68% | 1015.4 hPa | 0 mm | - | 672 W/m² | - |
| 1787417552 | 33.33° C | 68% | 1015.4 hPa | 0 mm | - | 678 W/m² | - |
| 1787417246 | 32.22° C | 69% | 1015.6 hPa | 0 mm | - | 677 W/m² | - |
| 1787416943 | 32.78° C | 69% | 1015.6 hPa | 0 mm | - | 675 W/m² | - |
| 1787416638 | 32.78° C | 67% | 1015.9 hPa | 0 mm | - | 681 W/m² | - |
| 1787416334 | 32.22° C | 73% | 1015.9 hPa | 0 mm | - | 666 W/m² | - |
| 1787416033 | 32.78° C | 74% | 1016 hPa | 0 mm | - | 673 W/m² | - |
| 1787415728 | 31.67° C | 73% | 1016 hPa | 0 mm | - | 670 W/m² | - |
| 1787415428 | 31.67° C | 74% | 1016.1 hPa | 0 mm | - | 690 W/m² | - |
| 1787415123 | 31.67° C | 73% | 1015.9 hPa | 0 mm | - | 692 W/m² | - |
| 1787414819 | 32.22° C | 74% | 1016.2 hPa | 0 mm | - | 696 W/m² | - |
| 1787414514 | 32.22° C | 74% | 1016 hPa | 0 mm | - | 699 W/m² | - |
| 1787414213 | 31.67° C | 73% | 1016 hPa | 0 mm | - | 701 W/m² | - |
| 1787413912 | 31.67° C | 75% | 1016.1 hPa | 0 mm | - | 708 W/m² | - |
| 1787413608 | 31.67° C | 74% | 1016 hPa | 0 mm | - | 718 W/m² | - |
| 1787413307 | 31.67° C | 74% | 1016.1 hPa | 0 mm | - | 728 W/m² | - |
| 1787413003 | 31.11° C | 74% | 1016.4 hPa | 0 mm | - | 743 W/m² | - |
| 1787412699 | 31.11° C | 74% | 1016.1 hPa | 0 mm | - | 744 W/m² | - |
| 1787412399 | 30.56° C | 74% | 1016.2 hPa | 0 mm | - | 760 W/m² | - |
| 1787412095 | 31.11° C | 76% | 1016.3 hPa | 0 mm | - | 754 W/m² | - |
| 1787411792 | 30.56° C | 75% | 1016.3 hPa | 0 mm | - | 743 W/m² | - |
* Rain latest hour (hover to see other rain measurements)
** Current wind speed in m/s (hover to see current wind gust speed)